TimeCDT,TemperatureF,Dew PointF,Humidity,Sea Level PressureIn,VisibilityMPH,Wind Direction,Wind SpeedMPH,Gust SpeedMPH,PrecipitationIn,Events,Conditions,WindDirDegrees,DateUTC
12:53 AM,60.1,55.0,83,30.14,10.0,North,3.5,-,N/A,,Clear,360,2013-05-13 05:53:00
1:53 AM,57.9,53.1,84,30.15,10.0,North,4.6,-,N/A,,Clear,360,2013-05-13 06:53:00
2:53 AM,55.0,50.0,83,30.16,10.0,North,6.9,-,N/A,,Clear,360,2013-05-13 07:53:00
3:53 AM,55.0,48.9,80,30.17,10.0,North,3.5,-,N/A,,Clear,350,2013-05-13 08:53:00
4:53 AM,52.0,48.9,89,30.19,10.0,Calm,Calm,-,N/A,,Clear,0,2013-05-13 09:53:00
5:53 AM,51.1,48.0,89,30.22,10.0,North,4.6,-,N/A,,Clear,360,2013-05-13 10:53:00
6:53 AM,54.0,46.9,77,30.25,10.0,North,4.6,-,N/A,,Clear,10,2013-05-13 11:53:00
7:53 AM,59.0,46.9,64,30.27,10.0,NNE,4.6,-,N/A,,Clear,20,2013-05-13 12:53:00
8:53 AM,64.0,45.0,50,30.28,10.0,NE,9.2,-,N/A,,Clear,50,2013-05-13 13:53:00
9:53 AM,68.0,43.0,40,30.29,10.0,Variable,6.9,-,N/A,,Clear,0,2013-05-13 14:53:00
10:53 AM,71.1,39.0,31,30.30,10.0,ENE,5.8,-,N/A,,Clear,70,2013-05-13 15:53:00
11:53 AM,73.0,37.0,27,30.29,10.0,NE,8.1,-,N/A,,Clear,50,2013-05-13 16:53:00
12:53 PM,75.9,39.0,26,30.26,10.0,North,10.4,16.1,N/A,,Clear,350,2013-05-13 17:53:00
1:53 PM,77.0,41.0,28,30.25,10.0,Calm,Calm,-,N/A,,Clear,0,2013-05-13 18:53:00
3:53 PM,79.0,41.0,26,30.22,10.0,Variable,4.6,-,N/A,,Clear,0,2013-05-13 20:53:00
4:53 PM,75.0,51.1,43,30.21,10.0,SSW,8.1,-,N/A,,Clear,210,2013-05-13 21:53:00
5:53 PM,72.0,53.1,51,30.20,10.0,SW,4.6,-,N/A,,Clear,220,2013-05-13 22:53:00
7:53 PM,64.9,55.0,70,30.22,10.0,WSW,3.5,-,N/A,,Clear,240,2013-05-14 00:53:00
8:53 PM,62.1,55.9,80,30.22,10.0,Calm,Calm,-,N/A,,Clear,0,2013-05-14 01:53:00
9:53 PM,57.9,55.0,90,30.23,10.0,Calm,Calm,-,N/A,,Clear,0,2013-05-14 02:53:00
10:53 PM,57.0,55.0,93,30.23,10.0,Calm,Calm,-,N/A,,Clear,0,2013-05-14 03:53:00
11:53 PM,55.9,54.0,93,30.23,10.0,Calm,Calm,-,N/A,,Clear,0,2013-05-14 04:53:00